Flag for U.S.A. Weather past 2 weeks in Owensboro, Kentucky, U.S.A.

Now
79 °F

Light rain. Clear.


Feels Like: 81 °F
Forecast: 67 / 89 °F
Wind: No wind

Location: Owensboro / Daviess

Current Time: Aug 31, 2015 at 8:54:15 PM

Latest Report: Aug 31, 2015 at 7:56 PM


Visibility: 10 mi

Pressure: 30.06 "Hg

Humidity: 69%

Dew point: 68 °F

Location of OwensboroLocation

Historic Weather in Owensboro — Graph

°F

Owensboro temperature yesterday

Maximum temperature yesterday: 85 °F (at 12:56 PM)
Minimum temperature yesterday: 70 °F (at 11:56 PM)
Average temperature yesterday: 76 °F

Past Weeks' High & Low Weather Summary

 TemperatureHumidityPressure
High90 °F (Aug 29, 3:56 PM)100% (Aug 18, 3:56 AM)30.18 "Hg (Aug 18, 3:56 AM)
Low53 °F (Aug 25, 5:56 AM)40% (Aug 24, 2:56 PM)29.79 "Hg (Aug 19, 4:56 PM)
Average73 °F76%30.03 "Hg
* Reported Aug 16 7:56 PM — Aug 31 7:56 PM, Owensboro, Weather by CustomWeather, © 2015

Note: Actual official high and low records may vary slightly from our data, if they occured in-between our weather recording intervals... More about our weather records

Advertising

Owensboro weather history for previous 24 hours

 ConditionsComfort  
Time TempWeatherWind HumidityBarometerVisibility
7:56 PM
Mon, Aug 31
79 °FLight rain. Clear.No wind69%30.06 "Hg10 mi
6:56 PM82 °FSunny.5 mph65%30.05 "Hg10 mi
5:56 PM85 °FSunny.5 mph57%30.05 "Hg10 mi
3:56 PM87 °FPassing clouds.7 mph50%30.06 "Hg10 mi
2:56 PM88 °FScattered clouds.3 mph50%30.08 "Hg10 mi
1:56 PM88 °FScattered clouds.5 mph53%30.09 "Hg10 mi
12:56 PM86 °FPartly sunny.3 mph55%30.11 "Hg10 mi
11:56 AM85 °FScattered clouds.5 mph59%30.13 "Hg10 mi
10:56 AM83 °FSunny.6 mph61%30.13 "Hg10 mi
9:56 AM80 °FSunny.10 mph67%30.14 "Hg7 mi
8:56 AM75 °FSunny.7 mph82%30.13 "Hg6 mi
7:56 AM71 °FFog.6 mph91%30.13 "Hg6 mi
6:56 AM67 °FFog.No wind96%30.11 "Hg6 mi
5:56 AM67 °FFog.5 mph96%30.08 "Hg6 mi
4:56 AM67 °FClear.6 mph96%30.06 "Hg10 mi
3:56 AM68 °FClear.No wind96%30.05 "Hg10 mi
2:56 AM68 °FClear.No wind96%30.06 "Hg10 mi
1:56 AM69 °FClear.3 mph93%30.06 "Hg10 mi
12:56 AM69 °FPassing clouds.5 mph97%30.06 "Hg10 mi
11:56 PM
Sun, Aug 30
70 °FClear.3 mph93%30.06 "Hg10 mi
10:56 PM71 °FClear.6 mph97%30.06 "Hg10 mi
9:56 PM73 °FLight rain. Clear.No wind93%30.06 "Hg10 mi
8:56 PM74 °FPassing clouds.5 mph90%30.06 "Hg10 mi
Weather by CustomWeather, © 2015

See weather overviewHow to use our weather pages